Find Starlink 11571

NORAD ID: 62986 Int'l Des: 2025-031 Owner: SPXS Country: US Constellation: starlink operational
LEOCIRCULAR

リアルタイム位置

3D地球を読み込み中...

Starlink 11571について

説明を読み込み中...

次回通過

Passes for default location (London). Set your location on the main map for personalized predictions.

高度履歴

Loading altitude history...

軌道要素

1 62986U 25031F 26126.08345840 .00106460 00000-0 82335-3 0 9992
2 62986 43.0008 15.0905 0002165 253.9543 106.1086 15.70816448 71771
Epoch: May 6, 2026 • Age: 9 hours

現在のステータス

高度 360.5 km
速度 7.69 km/s
衛星直下点 -20.54°S, 40.47°W
打ち上げ日 Feb 11, 2025
運用期間 1.2 years
タイプ internet

技術仕様

分類 Payload
質量 960.00 kg
乾燥質量 910.00 kg
総質量 960.00 kg
長さ 0.30 m
直径 4.10 m
スパン 29.00 m
形状 Box + pan
製造者 SPXS
バスタイプ Starlink V2MD
フェーズステータス In Orbit
所有者/国 SPXS/US

Most Searched